Location: *
(32.3300°N, 34.8500°E)
Time: 17:08:11
(UTC+00:00)

Cosmos 1953 - Pass Details

Date: 22 October 2019
Orbit: 539 x 559 km, 82.5° (Epoch: 12 November)

Event Time Altitude Azimuth Distance (km) Brightness Sun altitude
Exits shadow 01:33:11 17° 27° (NNE) 1,429 4.7 -29.4°
Maximum altitude 01:35:36 30° 80° (E) 982 4.1 -28.9°
Drops below altitude 10° 01:39:07 10° 142° (SE) 1,799 5.3 -28.1°
Sets 01:41:26 0° 153° (SSE) 2,684 6.1 -27.6°
